TimePST,TemperatureF,Dew PointF,Humidity,Sea Level PressureIn,VisibilityMPH,Wind Direction,Wind SpeedMPH,Gust SpeedMPH,PrecipitationIn,Events,Conditions,WindDirDegrees,DateUTC
12:15 AM,32.0,24.8,75,29.98,10.0,NNW,3.5,-,N/A,,Mostly Cloudy,330,2013-02-06 08:15:00
12:35 AM,30.2,23.0,75,29.98,10.0,Calm,Calm,-,N/A,,Partly Cloudy,0,2013-02-06 08:35:00
12:55 AM,30.2,21.2,69,29.99,10.0,Calm,Calm,-,N/A,,Mostly Cloudy,0,2013-02-06 08:55:00
1:15 AM,30.2,24.8,80,29.99,10.0,Calm,Calm,-,N/A,,Mostly Cloudy,0,2013-02-06 09:15:00
1:35 AM,30.2,21.2,69,30.00,10.0,SSW,5.8,-,N/A,,Mostly Cloudy,200,2013-02-06 09:35:00
1:55 AM,30.2,23.0,75,30.00,10.0,South,3.5,-,N/A,,Mostly Cloudy,190,2013-02-06 09:55:00
2:15 AM,33.8,24.8,70,30.01,10.0,Calm,Calm,-,N/A,,Overcast,0,2013-02-06 10:15:00
2:35 AM,35.6,26.6,70,30.00,10.0,Calm,Calm,-,N/A,,Overcast,0,2013-02-06 10:35:00
2:55 AM,30.2,21.2,69,30.00,10.0,ESE,3.5,-,N/A,,Mostly Cloudy,110,2013-02-06 10:55:00
3:15 AM,30.2,21.2,69,30.01,10.0,Calm,Calm,-,N/A,,Clear,0,2013-02-06 11:15:00
3:35 AM,30.2,21.2,69,30.02,10.0,ENE,5.8,-,N/A,,Partly Cloudy,60,2013-02-06 11:35:00
3:55 AM,30.2,23.0,75,30.02,10.0,Calm,Calm,-,N/A,,Mostly Cloudy,0,2013-02-06 11:55:00
4:15 AM,30.2,23.0,75,30.03,10.0,Calm,Calm,-,N/A,,Overcast,0,2013-02-06 12:15:00
4:35 AM,30.2,24.8,80,30.03,10.0,South,3.5,-,0.01,,Overcast,180,2013-02-06 12:35:00
4:55 AM,32.0,24.8,75,30.04,10.0,Calm,Calm,-,0.01,,Overcast,0,2013-02-06 12:55:00
5:15 AM,32.0,24.8,75,30.03,10.0,South,4.6,-,N/A,,Overcast,190,2013-02-06 13:15:00
5:35 AM,32.0,24.8,75,30.04,10.0,Calm,Calm,-,N/A,,Overcast,0,2013-02-06 13:35:00
5:55 AM,32.0,24.8,75,30.03,10.0,West,5.8,-,N/A,,Scattered Clouds,270,2013-02-06 13:55:00
6:15 AM,32.0,23.0,69,30.04,10.0,NNE,8.1,-,N/A,,Clear,20,2013-02-06 14:15:00
6:35 AM,28.4,21.2,74,30.05,10.0,East,6.9,-,N/A,,Scattered Clouds,80,2013-02-06 14:35:00
7:15 AM,30.2,21.2,69,30.06,10.0,SW,3.5,-,N/A,,Mostly Cloudy,220,2013-02-06 15:15:00
7:35 AM,30.2,21.2,69,30.06,10.0,SW,6.9,-,N/A,,Overcast,230,2013-02-06 15:35:00
7:55 AM,32.0,24.8,75,30.07,10.0,South,3.5,-,N/A,,Overcast,180,2013-02-06 15:55:00
8:35 AM,35.6,26.6,70,30.07,10.0,Calm,Calm,-,N/A,,Overcast,0,2013-02-06 16:35:00
8:55 AM,37.4,26.6,65,30.07,10.0,South,3.5,-,N/A,,Overcast,170,2013-02-06 16:55:00
9:15 AM,37.4,26.6,65,30.08,10.0,Calm,Calm,-,0.01,,Overcast,0,2013-02-06 17:15:00
9:35 AM,37.4,26.6,65,30.08,10.0,Calm,Calm,-,0.01,,Overcast,0,2013-02-06 17:35:00
9:55 AM,37.4,26.6,65,30.09,10.0,Calm,Calm,-,0.01,,Overcast,0,2013-02-06 17:55:00
10:15 AM,39.2,28.4,65,30.09,10.0,Calm,Calm,-,N/A,,Overcast,0,2013-02-06 18:15:00
10:35 AM,39.2,28.4,65,30.09,10.0,Calm,Calm,-,0.03,,Overcast,0,2013-02-06 18:35:00
10:55 AM,39.2,26.6,61,30.09,10.0,Calm,Calm,-,0.03,,Overcast,0,2013-02-06 18:55:00
11:15 AM,42.8,28.4,57,30.09,10.0,SW,8.1,-,N/A,,Overcast,230,2013-02-06 19:15:00
11:35 AM,42.8,28.4,57,30.08,10.0,SSW,9.2,-,N/A,,Overcast,210,2013-02-06 19:35:00
11:55 AM,44.6,26.6,49,30.07,10.0,SSW,3.5,-,0.02,,Overcast,210,2013-02-06 19:55:00
12:15 PM,44.6,26.6,49,30.06,10.0,Calm,Calm,-,0.01,,Overcast,0,2013-02-06 20:15:00
12:35 PM,44.6,26.6,49,30.05,10.0,Calm,Calm,-,0.01,,Scattered Clouds,0,2013-02-06 20:35:00
12:55 PM,46.4,28.4,50,30.05,10.0,SSW,5.8,-,0.02,,Clear,200,2013-02-06 20:55:00
1:15 PM,46.4,26.6,46,30.04,10.0,SSW,9.2,-,N/A,,Clear,200,2013-02-06 21:15:00
1:35 PM,46.4,23.0,40,30.04,10.0,South,11.5,-,N/A,,Clear,180,2013-02-06 21:35:00
1:55 PM,46.4,26.6,46,30.04,10.0,South,15.0,-,N/A,,Clear,190,2013-02-06 21:55:00
2:15 PM,46.4,26.6,46,30.03,10.0,South,17.3,-,N/A,,Clear,180,2013-02-06 22:15:00
2:35 PM,44.6,26.6,49,30.03,10.0,South,13.8,-,N/A,,Clear,180,2013-02-06 22:35:00
2:55 PM,46.4,28.4,50,30.03,10.0,South,16.1,-,N/A,,Clear,190,2013-02-06 22:55:00
3:15 PM,44.6,26.6,49,30.03,10.0,South,17.3,-,N/A,,Clear,180,2013-02-06 23:15:00
3:35 PM,44.6,26.6,49,30.02,10.0,South,17.3,-,N/A,,Clear,180,2013-02-06 23:35:00
3:55 PM,42.8,26.6,53,30.02,10.0,South,15.0,-,N/A,,Clear,180,2013-02-06 23:55:00
4:15 PM,42.8,26.6,53,30.02,10.0,South,16.1,20.7,N/A,,Clear,190,2013-02-07 00:15:00
4:35 PM,42.8,24.8,49,30.02,10.0,South,12.7,-,N/A,,Clear,180,2013-02-07 00:35:00
4:55 PM,41.0,24.8,53,30.01,10.0,South,15.0,-,N/A,,Clear,190,2013-02-07 00:55:00
5:15 PM,39.2,24.8,56,30.01,10.0,South,19.6,-,N/A,,Clear,190,2013-02-07 01:15:00
5:35 PM,39.2,23.0,52,30.00,10.0,SSW,16.1,-,N/A,,Clear,200,2013-02-07 01:35:00
5:55 PM,39.2,23.0,52,30.00,10.0,South,18.4,27.6,N/A,,Partly Cloudy,190,2013-02-07 01:55:00
6:15 PM,37.4,24.8,60,29.99,10.0,South,20.7,26.5,N/A,,Clear,190,2013-02-07 02:15:00
6:35 PM,37.4,24.8,60,29.99,10.0,South,24.2,28.8,N/A,,Clear,190,2013-02-07 02:35:00
6:55 PM,37.4,23.0,56,29.98,10.0,South,21.9,26.5,0.02,,Clear,190,2013-02-07 02:55:00
7:15 PM,37.4,23.0,56,29.98,10.0,South,23.0,-,N/A,,Clear,190,2013-02-07 03:15:00
7:35 PM,37.4,23.0,56,29.98,10.0,South,24.2,-,N/A,,Clear,190,2013-02-07 03:35:00
7:55 PM,37.4,23.0,56,29.97,10.0,South,26.5,32.2,N/A,,Clear,190,2013-02-07 03:55:00
8:15 PM,39.2,23.0,52,29.97,10.0,South,27.6,38.0,N/A,,Partly Cloudy,190,2013-02-07 04:15:00
8:35 PM,39.2,21.2,49,29.97,10.0,South,23.0,40.3,N/A,,Partly Cloudy,170,2013-02-07 04:35:00
8:55 PM,39.2,21.2,49,29.98,10.0,South,20.7,24.2,N/A,,Scattered Clouds,170,2013-02-07 04:55:00
9:15 PM,37.4,21.2,52,29.99,10.0,South,18.4,25.3,N/A,,Mostly Cloudy,170,2013-02-07 05:15:00
9:35 PM,39.2,21.2,49,29.97,10.0,SE,21.9,29.9,N/A,,Mostly Cloudy,140,2013-02-07 05:35:00
9:55 PM,39.2,21.2,49,29.97,10.0,ESE,20.7,32.2,N/A,,Partly Cloudy,110,2013-02-07 05:55:00
10:15 PM,39.2,21.2,49,29.96,10.0,ESE,18.4,27.6,N/A,,Clear,110,2013-02-07 06:15:00
10:35 PM,39.2,21.2,49,29.95,10.0,ESE,20.7,27.6,N/A,,Scattered Clouds,110,2013-02-07 06:35:00
10:55 PM,39.2,21.2,49,29.96,10.0,SE,10.4,31.1,N/A,,Mostly Cloudy,130,2013-02-07 06:55:00
11:15 PM,39.2,21.2,49,29.96,10.0,SSE,17.3,24.2,N/A,,Mostly Cloudy,160,2013-02-07 07:15:00
11:35 PM,39.2,21.2,49,29.96,10.0,South,16.1,31.1,N/A,,Mostly Cloudy,170,2013-02-07 07:35:00
11:55 PM,37.4,21.2,52,29.94,10.0,ESE,24.2,28.8,N/A,,Partly Cloudy,120,2013-02-07 07:55:00